Year,Month,Day,Hour,Minute,Value (Times are PST for temperature in C)
2012,12,01,00,00,9.10
2012,12,01,00,02,9.10
2012,12,01,00,04,9.10
2012,12,01,00,05,9.10
2012,12,01,00,06,9.10
2012,12,01,00,07,9.10
2012,12,01,00,09,9.10
2012,12,01,00,10,9.10
2012,12,01,00,11,9.10
2012,12,01,00,12,9.10
2012,12,01,00,13,9.10
2012,12,01,00,15,9.10
2012,12,01,00,16,9.10
2012,12,01,00,17,9.10
2012,12,01,00,18,9.10
2012,12,01,00,20,9.10
2012,12,01,00,21,9.10
2012,12,01,00,22,9.10
2012,12,01,00,23,9.10
2012,12,01,00,25,9.10
2012,12,01,00,26,9.10
2012,12,01,00,27,9.10
2012,12,01,00,28,9.10
2012,12,01,00,30,9.00
2012,12,01,00,31,9.00
2012,12,01,00,32,8.90
2012,12,01,00,33,8.90
2012,12,01,00,35,8.90
2012,12,01,00,36,8.90
2012,12,01,00,37,8.90
2012,12,01,00,38,8.90
2012,12,01,00,40,8.80
2012,12,01,00,41,8.80
2012,12,01,00,42,8.80
2012,12,01,00,43,8.80
2012,12,01,00,44,8.80
2012,12,01,00,46,8.80
2012,12,01,00,47,8.80
2012,12,01,00,48,8.80
2012,12,01,00,50,8.80
2012,12,01,00,51,8.80
2012,12,01,00,52,8.80
2012,12,01,00,53,8.80
2012,12,01,00,55,8.70
2012,12,01,00,56,8.70
2012,12,01,00,57,8.70
2012,12,01,00,58,8.70
2012,12,01,01,00,8.70
2012,12,01,01,01,8.70
2012,12,01,01,02,8.70
2012,12,01,01,03,8.70
2012,12,01,01,05,8.70
2012,12,01,01,06,8.70
2012,12,01,01,07,8.70
2012,12,01,01,08,8.70
2012,12,01,01,10,8.70
2012,12,01,01,11,8.70
2012,12,01,01,12,8.70
2012,12,01,01,13,8.70
2012,12,01,01,15,8.70
2012,12,01,01,16,8.60
2012,12,01,01,17,8.60
2012,12,01,01,18,8.60
2012,12,01,01,20,8.60
2012,12,01,01,21,8.60
2012,12,01,01,22,8.60
2012,12,01,01,23,8.60
2012,12,01,01,25,8.60
2012,12,01,01,26,8.60
2012,12,01,01,27,8.60
2012,12,01,01,28,8.60
2012,12,01,01,30,8.60
2012,12,01,01,31,8.60
2012,12,01,01,32,8.60
2012,12,01,01,33,8.60
2012,12,01,01,35,8.60
2012,12,01,01,37,8.60
2012,12,01,01,38,8.60
2012,12,01,01,39,8.60
2012,12,01,01,41,8.60
2012,12,01,01,42,8.60
2012,12,01,01,43,8.60
2012,12,01,01,44,8.60
2012,12,01,01,46,8.50
2012,12,01,01,47,8.60
2012,12,01,01,48,8.50
2012,12,01,01,49,8.50
2012,12,01,01,51,8.50
2012,12,01,01,52,8.50
2012,12,01,01,53,8.60
2012,12,01,01,54,8.50
2012,12,01,01,56,8.50
2012,12,01,01,57,8.50
2012,12,01,01,58,8.50
2012,12,01,01,59,8.50
2012,12,01,02,01,8.50
2012,12,01,02,02,8.50
2012,12,01,02,03,8.60
2012,12,01,02,04,8.60
2012,12,01,02,06,8.60
2012,12,01,02,07,8.60
2012,12,01,02,09,8.60
2012,12,01,02,11,8.60
2012,12,01,02,12,8.60
2012,12,01,02,14,8.60
2012,12,01,02,16,8.60
2012,12,01,02,17,8.60
2012,12,01,02,18,8.60
2012,12,01,02,19,8.60
2012,12,01,02,21,8.60
2012,12,01,02,23,8.60
2012,12,01,02,24,8.60
2012,12,01,02,26,8.60
2012,12,01,02,27,8.60
2012,12,01,02,28,8.60
2012,12,01,02,29,8.60
2012,12,01,02,30,8.60
2012,12,01,02,31,8.50
2012,12,01,02,33,8.60
2012,12,01,02,34,8.50
2012,12,01,02,35,8.50
2012,12,01,02,36,8.50
2012,12,01,02,38,8.60
2012,12,01,02,39,8.60
2012,12,01,02,40,8.60
2012,12,01,02,41,8.60
2012,12,01,02,42,8.60
2012,12,01,02,44,8.60
2012,12,01,02,45,8.60
2012,12,01,02,46,8.60
2012,12,01,02,47,8.60
2012,12,01,02,49,8.60
2012,12,01,02,50,8.60
2012,12,01,02,51,8.60
2012,12,01,02,53,8.60
2012,12,01,02,54,8.60
2012,12,01,02,55,8.60
2012,12,01,02,56,8.60
2012,12,01,02,58,8.60
2012,12,01,02,59,8.60
2012,12,01,03,00,8.60
2012,12,01,03,02,8.60
2012,12,01,03,03,8.60
2012,12,01,03,04,8.60
2012,12,01,03,05,8.60
2012,12,01,03,06,8.60
2012,12,01,03,08,8.60
2012,12,01,03,09,8.60
2012,12,01,03,10,8.60
2012,12,01,03,11,8.60
2012,12,01,03,13,8.60
2012,12,01,03,14,8.60
2012,12,01,03,15,8.60
2012,12,01,03,16,8.60
2012,12,01,03,18,8.60
2012,12,01,03,19,8.60
2012,12,01,03,20,8.60
2012,12,01,03,21,8.60
2012,12,01,03,23,8.60
2012,12,01,03,24,8.50
2012,12,01,03,25,8.50
2012,12,01,03,26,8.50
2012,12,01,03,28,8.50
2012,12,01,03,29,8.50
2012,12,01,03,30,8.50
2012,12,01,03,31,8.50
2012,12,01,03,33,8.50
2012,12,01,03,34,8.50
2012,12,01,03,35,8.40
2012,12,01,03,36,8.40
2012,12,01,03,38,8.40
2012,12,01,03,39,8.40
2012,12,01,03,40,8.40
2012,12,01,03,41,8.40
2012,12,01,03,43,8.40
2012,12,01,03,44,8.40
2012,12,01,03,45,8.40
2012,12,01,03,46,8.40
2012,12,01,03,47,8.40
2012,12,01,03,49,8.40
2012,12,01,03,50,8.40
2012,12,01,03,51,8.40
2012,12,01,03,52,8.40
2012,12,01,03,53,8.40
2012,12,01,03,55,8.40
2012,12,01,03,56,8.40
2012,12,01,03,57,8.40
2012,12,01,03,58,8.40
2012,12,01,04,00,8.30
2012,12,01,04,01,8.30
2012,12,01,04,02,8.30
2012,12,01,04,03,8.30
2012,12,01,04,05,8.20
2012,12,01,04,06,8.20
2012,12,01,04,07,8.20
2012,12,01,04,10,8.20
2012,12,01,04,11,8.20
2012,12,01,04,12,8.20
2012,12,01,04,13,8.20
2012,12,01,04,14,8.20
2012,12,01,04,16,8.20
2012,12,01,04,17,8.20
2012,12,01,04,18,8.20
2012,12,01,04,19,8.30
2012,12,01,04,21,8.30
2012,12,01,04,22,8.30
2012,12,01,04,23,8.30
2012,12,01,04,24,8.30
2012,12,01,04,26,8.30
2012,12,01,04,27,8.30
2012,12,01,04,28,8.30
2012,12,01,04,29,8.30
2012,12,01,04,31,8.30
2012,12,01,04,32,8.30
2012,12,01,04,33,8.30
2012,12,01,04,34,8.30
2012,12,01,04,35,8.20
2012,12,01,04,36,8.20
2012,12,01,04,37,8.20
2012,12,01,04,39,8.20
2012,12,01,04,41,8.20
2012,12,01,04,42,8.20
2012,12,01,04,44,8.20
2012,12,01,04,45,8.20
2012,12,01,04,46,8.20
2012,12,01,04,48,8.20
2012,12,01,04,49,8.20
2012,12,01,04,51,8.20
2012,12,01,04,52,8.20
2012,12,01,04,53,8.20
2012,12,01,04,54,8.20
2012,12,01,04,55,8.20
2012,12,01,04,56,8.20
2012,12,01,04,57,8.30
2012,12,01,04,58,8.30
2012,12,01,04,59,8.30
2012,12,01,05,02,8.30
2012,12,01,05,03,8.30
2012,12,01,05,04,8.20
2012,12,01,05,06,8.20
2012,12,01,05,07,8.20
2012,12,01,05,08,8.20
2012,12,01,05,09,8.20
2012,12,01,05,11,8.20
2012,12,01,05,12,8.20
2012,12,01,05,13,8.20
2012,12,01,05,15,8.20
2012,12,01,05,16,8.20
2012,12,01,05,17,8.20
2012,12,01,05,18,8.20
2012,12,01,05,19,8.20
2012,12,01,05,21,8.20
2012,12,01,05,22,8.20
2012,12,01,05,23,8.20
2012,12,01,05,24,8.20
2012,12,01,05,25,8.20
2012,12,01,05,26,8.10
2012,12,01,05,27,8.10
2012,12,01,05,28,8.10
2012,12,01,05,29,8.10
2012,12,01,05,31,8.10
2012,12,01,05,32,8.10
2012,12,01,05,33,8.10
2012,12,01,05,35,8.00
2012,12,01,05,36,8.10
2012,12,01,05,37,8.00
2012,12,01,05,39,8.00
2012,12,01,05,41,8.00
2012,12,01,05,42,8.00
2012,12,01,05,44,8.00
2012,12,01,05,45,7.90
2012,12,01,05,46,7.90
2012,12,01,05,48,7.90
2012,12,01,05,49,7.90
2012,12,01,05,50,7.90
2012,12,01,05,51,7.90
2012,12,01,05,52,7.90
2012,12,01,05,53,7.90
2012,12,01,05,54,7.90
2012,12,01,05,57,7.90
2012,12,01,05,58,7.90
2012,12,01,05,59,8.00
2012,12,01,06,00,8.00
2012,12,01,06,02,8.00
2012,12,01,06,03,8.00
2012,12,01,06,04,8.10
2012,12,01,06,06,8.10
2012,12,01,06,07,8.10
2012,12,01,06,08,8.10
2012,12,01,06,09,8.10
2012,12,01,06,11,8.10
2012,12,01,06,12,8.10
2012,12,01,06,13,8.20
2012,12,01,06,14,8.20
2012,12,01,06,16,8.20
2012,12,01,06,17,8.20
2012,12,01,06,18,8.20
2012,12,01,06,20,8.20
2012,12,01,06,21,8.20
2012,12,01,06,22,8.20
2012,12,01,06,24,8.30
2012,12,01,06,26,8.30
2012,12,01,06,27,8.30
2012,12,01,06,28,8.30
2012,12,01,06,29,8.30
2012,12,01,06,31,8.30
2012,12,01,06,32,8.30
2012,12,01,06,33,8.30
2012,12,01,06,35,8.30
2012,12,01,06,36,8.30
2012,12,01,06,37,8.30
2012,12,01,06,38,8.30
2012,12,01,06,39,8.30
2012,12,01,06,40,8.30
2012,12,01,06,41,8.30
2012,12,01,06,43,8.30
2012,12,01,06,44,8.30
2012,12,01,06,45,8.30
2012,12,01,06,46,8.30
2012,12,01,06,48,8.30
2012,12,01,06,49,8.20
2012,12,01,06,50,8.20
2012,12,01,06,51,8.20
2012,12,01,06,53,8.10
2012,12,01,06,54,8.10
2012,12,01,06,55,8.10
2012,12,01,06,56,8.10
2012,12,01,06,58,8.10
2012,12,01,06,59,8.10
2012,12,01,07,00,8.00
2012,12,01,07,01,8.00
2012,12,01,07,03,8.00
2012,12,01,07,04,7.90
2012,12,01,07,05,7.90
2012,12,01,07,06,7.90
2012,12,01,07,08,7.90
2012,12,01,07,09,7.90
2012,12,01,07,10,7.90
2012,12,01,07,11,7.90
2012,12,01,07,13,7.90
2012,12,01,07,14,7.90
2012,12,01,07,15,7.90
2012,12,01,07,16,7.90
2012,12,01,07,17,7.90
2012,12,01,07,19,7.90
2012,12,01,07,20,7.90
2012,12,01,07,21,7.90
2012,12,01,07,23,7.90
2012,12,01,07,24,7.90
2012,12,01,07,25,7.90
2012,12,01,07,26,7.90
2012,12,01,07,28,7.90
2012,12,01,07,29,7.90
2012,12,01,07,31,7.90
2012,12,01,07,33,7.90
2012,12,01,07,34,7.90
2012,12,01,07,35,7.90
2012,12,01,07,36,7.90
2012,12,01,07,37,7.90
2012,12,01,07,38,7.90
2012,12,01,07,39,7.90
2012,12,01,07,40,7.90
2012,12,01,07,41,7.90
2012,12,01,07,43,7.90
2012,12,01,07,44,7.90
2012,12,01,07,45,7.90
2012,12,01,07,46,7.90
2012,12,01,07,47,7.90
2012,12,01,07,48,7.90
2012,12,01,07,49,7.90
2012,12,01,07,50,7.90
2012,12,01,07,51,7.90
2012,12,01,07,52,7.90
2012,12,01,07,53,7.90
2012,12,01,07,54,7.90
2012,12,01,07,55,7.90
2012,12,01,07,56,7.90
2012,12,01,07,57,7.90
2012,12,01,07,58,7.90
2012,12,01,07,59,7.90
2012,12,01,08,01,8.00
2012,12,01,08,02,8.00
2012,12,01,08,03,8.00
2012,12,01,08,04,8.00
2012,12,01,08,07,8.10
2012,12,01,08,08,8.10
2012,12,01,08,09,8.10
2012,12,01,08,10,8.10
2012,12,01,08,12,8.10
2012,12,01,08,13,8.10
2012,12,01,08,14,8.00
2012,12,01,08,15,8.00
2012,12,01,08,16,8.00
2012,12,01,08,17,8.00
2012,12,01,08,18,8.00
2012,12,01,08,19,8.00
2012,12,01,08,22,8.00
2012,12,01,08,23,8.10
2012,12,01,08,24,8.10
2012,12,01,08,25,8.10
2012,12,01,08,26,8.10
2012,12,01,08,27,8.00
2012,12,01,08,28,7.90
2012,12,01,08,29,7.90
2012,12,01,08,31,7.90
2012,12,01,08,32,7.90
2012,12,01,08,33,7.80
2012,12,01,08,34,7.80
2012,12,01,08,36,7.80
2012,12,01,08,37,7.90
2012,12,01,08,38,7.90
2012,12,01,08,39,7.90
2012,12,01,08,41,7.80
2012,12,01,08,42,7.90
2012,12,01,08,43,7.90
2012,12,01,08,44,7.90
2012,12,01,08,46,7.90
2012,12,01,08,47,7.90
2012,12,01,08,48,8.00
2012,12,01,08,49,8.00
2012,12,01,08,50,8.00
2012,12,01,08,52,8.10
2012,12,01,08,53,8.10
2012,12,01,08,54,8.10
2012,12,01,08,55,8.10
2012,12,01,08,57,8.10
2012,12,01,08,58,8.20
2012,12,01,08,59,8.20
2012,12,01,09,00,8.20
2012,12,01,09,02,8.30
2012,12,01,09,03,8.30
2012,12,01,09,04,8.30
2012,12,01,09,05,8.30
2012,12,01,09,07,8.40
2012,12,01,09,08,8.40
2012,12,01,09,09,8.40
2012,12,01,09,11,8.40
2012,12,01,09,12,8.50
2012,12,01,09,13,8.50
2012,12,01,09,15,8.60
2012,12,01,09,16,8.60
2012,12,01,09,17,8.60
2012,12,01,09,18,8.60
2012,12,01,09,19,8.60
2012,12,01,09,21,8.70
2012,12,01,09,22,8.70
2012,12,01,09,23,8.70
2012,12,01,09,25,8.70
2012,12,01,09,26,8.80
2012,12,01,09,27,8.80
2012,12,01,09,28,8.80
2012,12,01,09,30,8.80
2012,12,01,09,31,8.80
2012,12,01,09,32,8.80
2012,12,01,09,34,8.80
2012,12,01,09,36,8.90
2012,12,01,09,37,8.90
2012,12,01,09,38,8.90
2012,12,01,09,39,8.90
2012,12,01,09,41,8.90
2012,12,01,09,42,8.90
2012,12,01,09,43,9.00
2012,12,01,09,44,8.90
2012,12,01,09,46,8.90
2012,12,01,09,47,8.90
2012,12,01,09,49,8.90
2012,12,01,09,51,8.90
2012,12,01,09,52,8.80
2012,12,01,09,53,8.80
2012,12,01,09,54,8.80
2012,12,01,09,56,8.70
2012,12,01,09,57,8.70
2012,12,01,09,58,8.70
2012,12,01,09,59,8.70
2012,12,01,10,01,8.70
2012,12,01,10,02,8.70
2012,12,01,10,03,8.70
2012,12,01,10,04,8.70
2012,12,01,10,06,8.70
2012,12,01,10,07,8.70
2012,12,01,10,08,8.70
2012,12,01,10,09,8.70
2012,12,01,10,11,8.70
2012,12,01,10,12,8.70
2012,12,01,10,14,8.70
2012,12,01,10,16,8.90
2012,12,01,10,17,8.90
2012,12,01,10,19,9.10
2012,12,01,10,21,9.20
2012,12,01,10,22,9.20
2012,12,01,10,24,9.20
2012,12,01,10,26,9.30
2012,12,01,10,27,9.30
2012,12,01,10,28,9.30
2012,12,01,10,29,9.30
2012,12,01,10,31,9.40
2012,12,01,10,32,9.40
2012,12,01,10,33,9.40
2012,12,01,10,34,9.40
2012,12,01,10,36,9.40
2012,12,01,10,38,9.40
2012,12,01,10,39,9.30
2012,12,01,10,41,9.30
2012,12,01,10,43,9.30
2012,12,01,10,44,9.30
2012,12,01,10,46,9.20
2012,12,01,10,47,9.20
2012,12,01,10,48,9.20
2012,12,01,10,49,9.20
2012,12,01,10,51,9.20
2012,12,01,10,52,9.20
2012,12,01,10,53,9.20
2012,12,01,10,54,9.20
2012,12,01,10,56,9.20
2012,12,01,10,57,9.20
2012,12,01,10,58,9.20
2012,12,01,10,59,9.30
2012,12,01,11,01,9.30
2012,12,01,11,04,9.40
2012,12,01,11,05,9.40
2012,12,01,11,07,9.40
2012,12,01,11,08,9.40
2012,12,01,11,09,9.40
2012,12,01,11,11,9.50
2012,12,01,11,12,9.60
2012,12,01,11,13,9.60
2012,12,01,11,14,9.70
2012,12,01,11,16,9.80
2012,12,01,11,17,9.80
2012,12,01,11,18,9.80
2012,12,01,11,19,9.90
2012,12,01,11,21,9.90
2012,12,01,11,23,9.80
2012,12,01,11,24,9.90
2012,12,01,11,26,9.90
2012,12,01,11,27,9.90
2012,12,01,11,28,9.80
2012,12,01,11,29,9.80
2012,12,01,11,31,9.90
2012,12,01,11,32,9.90
2012,12,01,11,33,9.90
2012,12,01,11,34,9.90
2012,12,01,11,36,9.80
2012,12,01,11,37,9.80
2012,12,01,11,39,9.70
2012,12,01,11,41,9.50
2012,12,01,11,42,9.40
2012,12,01,11,43,9.40
2012,12,01,11,44,9.40
2012,12,01,11,46,9.30
2012,12,01,11,48,9.20
2012,12,01,11,49,9.20
2012,12,01,11,51,9.20
2012,12,01,11,52,9.20
2012,12,01,11,54,9.20
2012,12,01,11,56,9.20
2012,12,01,11,57,9.20
2012,12,01,11,58,9.20
2012,12,01,11,59,9.20
2012,12,01,12,01,9.20
2012,12,01,12,02,9.20
2012,12,01,12,03,9.20
2012,12,01,12,04,9.20
2012,12,01,12,06,9.20
2012,12,01,12,07,9.30
2012,12,01,12,08,9.30
2012,12,01,12,09,9.30
2012,12,01,12,12,9.20
2012,12,01,12,13,9.20
2012,12,01,12,14,9.20
2012,12,01,12,15,9.20
2012,12,01,12,16,9.20
2012,12,01,12,17,9.20
2012,12,01,12,18,9.20
2012,12,01,12,19,9.10
2012,12,01,12,21,9.10
2012,12,01,12,22,9.10
2012,12,01,12,23,9.10
2012,12,01,12,24,9.10
2012,12,01,12,26,9.10
2012,12,01,12,27,9.00
2012,12,01,12,29,9.10
2012,12,01,12,30,9.00
2012,12,01,12,31,9.00
2012,12,01,12,32,9.00
2012,12,01,12,34,9.00
2012,12,01,12,35,8.90
2012,12,01,12,36,8.90
2012,12,01,12,37,8.90
2012,12,01,12,39,8.80
2012,12,01,12,40,8.80
2012,12,01,12,41,8.80
2012,12,01,12,42,8.80
2012,12,01,12,43,8.80
2012,12,01,12,44,8.80
2012,12,01,12,45,8.80
2012,12,01,12,46,8.80
2012,12,01,12,47,8.80
2012,12,01,12,48,8.80
2012,12,01,12,49,8.80
2012,12,01,12,50,8.80
2012,12,01,12,52,8.80
2012,12,01,12,53,8.80
2012,12,01,12,54,8.80
2012,12,01,12,56,8.80
2012,12,01,12,57,8.80
2012,12,01,12,58,8.80
2012,12,01,12,59,8.80
2012,12,01,13,00,8.70
2012,12,01,13,01,8.70
2012,12,01,13,03,8.70
2012,12,01,13,04,8.70
2012,12,01,13,05,8.70
2012,12,01,13,06,8.70
2012,12,01,13,08,8.70
2012,12,01,13,09,8.70
2012,12,01,13,10,8.70
2012,12,01,13,11,8.70
2012,12,01,13,13,8.70
2012,12,01,13,14,8.70
2012,12,01,13,15,8.70
2012,12,01,13,16,8.70
2012,12,01,13,18,8.70
2012,12,01,13,19,8.70
2012,12,01,13,20,8.70
2012,12,01,13,21,8.70
2012,12,01,13,23,8.70
2012,12,01,13,24,8.80
2012,12,01,13,25,8.80
2012,12,01,13,26,8.90
2012,12,01,13,27,8.90
2012,12,01,13,29,9.00
2012,12,01,13,31,9.10
2012,12,01,13,32,9.10
2012,12,01,13,34,9.10
2012,12,01,13,36,9.10
2012,12,01,13,37,9.10
2012,12,01,13,39,9.10
2012,12,01,13,41,9.00
2012,12,01,13,42,9.00
2012,12,01,13,44,8.90
2012,12,01,13,46,8.90
2012,12,01,13,47,8.90
2012,12,01,13,48,9.00
2012,12,01,13,49,9.00
2012,12,01,13,51,9.10
2012,12,01,13,52,9.10
2012,12,01,13,53,9.10
2012,12,01,13,54,9.20
2012,12,01,13,56,9.20
2012,12,01,13,57,9.20
2012,12,01,13,58,9.20
2012,12,01,13,59,9.20
2012,12,01,14,01,9.20
2012,12,01,14,02,9.10
2012,12,01,14,03,9.10
2012,12,01,14,04,9.10
2012,12,01,14,06,9.10
2012,12,01,14,07,9.10
2012,12,01,14,08,9.00
2012,12,01,14,10,9.00
2012,12,01,14,11,8.90
2012,12,01,14,12,8.90
2012,12,01,14,13,8.90
2012,12,01,14,14,8.90
2012,12,01,14,15,8.90
2012,12,01,14,16,8.80
2012,12,01,14,17,8.80
2012,12,01,14,18,8.80
2012,12,01,14,19,8.80
2012,12,01,14,20,8.80
2012,12,01,14,21,8.80
2012,12,01,14,22,8.80
2012,12,01,14,23,8.80
2012,12,01,14,25,8.80
2012,12,01,14,26,8.80
2012,12,01,14,27,8.80
2012,12,01,14,28,8.80
2012,12,01,14,30,8.80
2012,12,01,14,31,8.80
2012,12,01,14,32,8.80
2012,12,01,14,33,8.80
2012,12,01,14,34,8.80
2012,12,01,14,36,8.80
2012,12,01,14,37,8.80
2012,12,01,14,39,8.80
2012,12,01,14,41,8.80
2012,12,01,14,42,8.80
2012,12,01,14,43,8.80
2012,12,01,14,44,8.70
2012,12,01,14,46,8.70
2012,12,01,14,48,8.70
2012,12,01,14,49,8.70
2012,12,01,14,51,8.70
2012,12,01,14,52,8.60
2012,12,01,14,53,8.70
2012,12,01,14,54,8.60
2012,12,01,14,56,8.60
2012,12,01,14,57,8.60
2012,12,01,14,58,8.60
2012,12,01,14,59,8.60
2012,12,01,15,01,8.50
2012,12,01,15,02,8.50
2012,12,01,15,03,8.50
2012,12,01,15,04,8.50
2012,12,01,15,07,8.40
2012,12,01,15,08,8.40
2012,12,01,15,09,8.40
2012,12,01,15,10,8.40
2012,12,01,15,12,8.40
2012,12,01,15,13,8.40
2012,12,01,15,14,8.40
2012,12,01,15,16,8.40
2012,12,01,15,17,8.40
2012,12,01,15,18,8.40
2012,12,01,15,19,8.40
2012,12,01,15,21,8.40
2012,12,01,15,22,8.40
2012,12,01,15,23,8.30
2012,12,01,15,24,8.30
2012,12,01,15,26,8.30
2012,12,01,15,27,8.30
2012,12,01,15,28,8.30
2012,12,01,15,29,8.30
2012,12,01,15,30,8.30
2012,12,01,15,32,8.30
2012,12,01,15,33,8.30
2012,12,01,15,34,8.30
2012,12,01,15,36,8.30
2012,12,01,15,37,8.30
2012,12,01,15,38,8.30
2012,12,01,15,39,8.30
2012,12,01,15,41,8.30
2012,12,01,15,42,8.30
2012,12,01,15,43,8.30
2012,12,01,15,45,8.30
2012,12,01,15,46,8.30
2012,12,01,15,47,8.30
2012,12,01,15,49,8.30
2012,12,01,15,50,8.30
2012,12,01,15,51,8.30
2012,12,01,15,52,8.30
2012,12,01,15,53,8.30
2012,12,01,15,55,8.30
2012,12,01,15,56,8.30
2012,12,01,15,57,8.30
2012,12,01,15,58,8.30
2012,12,01,16,00,8.30
2012,12,01,16,01,8.40
2012,12,01,16,02,8.40
2012,12,01,16,03,8.40
2012,12,01,16,04,8.40
2012,12,01,16,05,8.40
2012,12,01,16,06,8.40
2012,12,01,16,08,8.40
2012,12,01,16,09,8.50
2012,12,01,16,10,8.50
2012,12,01,16,12,8.50
2012,12,01,16,13,8.50
2012,12,01,16,14,8.50
2012,12,01,16,15,8.40
2012,12,01,16,16,8.50
2012,12,01,16,18,8.40
2012,12,01,16,19,8.40
2012,12,01,16,20,8.40
2012,12,01,16,21,8.40
2012,12,01,16,22,8.40
2012,12,01,16,24,8.40
2012,12,01,16,25,8.40
2012,12,01,16,26,8.40
2012,12,01,16,27,8.40
2012,12,01,16,29,8.40
2012,12,01,16,30,8.40
2012,12,01,16,32,8.40
2012,12,01,16,33,8.40
2012,12,01,16,34,8.30
2012,12,01,16,35,8.30
2012,12,01,16,38,8.30
2012,12,01,16,39,8.30
2012,12,01,16,40,8.30
2012,12,01,16,41,8.30
2012,12,01,16,43,8.30
2012,12,01,16,44,8.30
2012,12,01,16,46,8.20
2012,12,01,16,47,8.20
2012,12,01,16,48,8.20
2012,12,01,16,49,8.20
2012,12,01,16,52,8.20
2012,12,01,16,53,8.20
2012,12,01,16,54,8.20
2012,12,01,16,56,8.20
2012,12,01,16,58,8.20
2012,12,01,16,59,8.20
2012,12,01,17,01,8.20
2012,12,01,17,02,8.20
2012,12,01,17,04,8.20
2012,12,01,17,06,8.10
2012,12,01,17,07,8.10
2012,12,01,17,08,8.10
2012,12,01,17,09,8.00
2012,12,01,17,11,7.80
2012,12,01,17,12,7.80
2012,12,01,17,13,7.80
2012,12,01,17,14,7.80
2012,12,01,17,15,7.70
2012,12,01,17,17,7.70
2012,12,01,17,18,7.70
2012,12,01,17,19,7.70
2012,12,01,17,21,7.60
2012,12,01,17,23,7.60
2012,12,01,17,24,7.60
2012,12,01,17,25,7.60
2012,12,01,17,27,7.60
2012,12,01,17,28,7.60
2012,12,01,17,29,7.70
2012,12,01,17,32,7.60
2012,12,01,17,33,7.60
2012,12,01,17,34,7.60
2012,12,01,17,35,7.60
2012,12,01,17,37,7.50
2012,12,01,17,38,7.50
2012,12,01,17,39,7.40
2012,12,01,17,41,7.40
2012,12,01,17,42,7.40
2012,12,01,17,43,7.40
2012,12,01,17,44,7.40
2012,12,01,17,46,7.40
2012,12,01,17,47,7.30
2012,12,01,17,48,7.30
2012,12,01,17,49,7.30
2012,12,01,17,51,7.30
2012,12,01,17,52,7.30
2012,12,01,17,53,7.30
2012,12,01,17,54,7.30
2012,12,01,17,56,7.30
2012,12,01,17,57,7.30
2012,12,01,17,58,7.30
2012,12,01,17,59,7.30
2012,12,01,18,02,7.30
2012,12,01,18,03,7.30
2012,12,01,18,04,7.30
2012,12,01,18,07,7.30
2012,12,01,18,08,7.30
2012,12,01,18,09,7.20
2012,12,01,18,12,7.20
2012,12,01,18,13,7.20
2012,12,01,18,14,7.30
2012,12,01,18,16,7.20
2012,12,01,18,17,7.20
2012,12,01,18,18,7.20
2012,12,01,18,19,7.20
2012,12,01,18,21,7.20
2012,12,01,18,22,7.20
2012,12,01,18,23,7.20
2012,12,01,18,24,7.20
2012,12,01,18,26,7.10
2012,12,01,18,28,7.20
2012,12,01,18,29,7.20
2012,12,01,18,31,7.20
2012,12,01,18,32,7.20
2012,12,01,18,34,7.20
2012,12,01,18,36,7.30
2012,12,01,18,37,7.30
2012,12,01,18,38,7.30
2012,12,01,18,40,7.30
2012,12,01,18,41,7.40
2012,12,01,18,42,7.40
2012,12,01,18,43,7.40
2012,12,01,18,45,7.40
2012,12,01,18,46,7.50
2012,12,01,18,47,7.50
2012,12,01,18,48,7.60
2012,12,01,18,50,7.60
2012,12,01,18,52,7.60
2012,12,01,18,54,7.60
2012,12,01,18,56,7.60
2012,12,01,18,57,7.60
2012,12,01,18,58,7.60
2012,12,01,18,59,7.70
2012,12,01,19,01,7.70
2012,12,01,19,03,7.70
2012,12,01,19,04,7.70
2012,12,01,19,06,7.70
2012,12,01,19,07,7.70
2012,12,01,19,09,7.70
2012,12,01,19,11,7.70
2012,12,01,19,12,7.70
2012,12,01,19,14,7.80
2012,12,01,19,16,7.80
2012,12,01,19,17,7.80
2012,12,01,19,19,7.80
2012,12,01,19,21,7.80
2012,12,01,19,22,7.80
2012,12,01,19,23,7.80
2012,12,01,19,25,7.80
2012,12,01,19,26,7.80
2012,12,01,19,28,7.80
2012,12,01,19,29,7.80
2012,12,01,19,30,7.80
2012,12,01,19,32,7.80
2012,12,01,19,33,7.80
2012,12,01,19,34,7.80
2012,12,01,19,35,7.80
2012,12,01,19,37,7.80
2012,12,01,19,38,7.80
2012,12,01,19,39,7.80
2012,12,01,19,40,7.80
2012,12,01,19,42,7.80
2012,12,01,19,43,7.80
2012,12,01,19,44,7.80
2012,12,01,19,45,7.80
2012,12,01,19,47,7.80
2012,12,01,19,48,7.80
2012,12,01,19,49,7.80
2012,12,01,19,50,7.90
2012,12,01,19,51,7.90
2012,12,01,19,53,7.90
2012,12,01,19,54,7.80
2012,12,01,19,55,7.90
2012,12,01,19,56,7.80
2012,12,01,19,58,7.80
2012,12,01,19,59,7.80
2012,12,01,20,00,7.80
2012,12,01,20,02,7.80
2012,12,01,20,03,7.80
2012,12,01,20,04,7.80
2012,12,01,20,05,7.80
2012,12,01,20,07,7.80
2012,12,01,20,08,7.80
2012,12,01,20,09,7.80
2012,12,01,20,10,7.80
2012,12,01,20,12,7.80
2012,12,01,20,13,7.80
2012,12,01,20,14,7.80
2012,12,01,20,15,7.80
2012,12,01,20,16,7.80
2012,12,01,20,18,7.80
2012,12,01,20,19,7.80
2012,12,01,20,20,7.80
2012,12,01,20,21,7.80
2012,12,01,20,22,7.90
2012,12,01,20,24,7.90
2012,12,01,20,25,7.90
2012,12,01,20,26,8.00
2012,12,01,20,27,8.00
2012,12,01,20,29,8.00
2012,12,01,20,30,8.00
2012,12,01,20,31,8.10
2012,12,01,20,33,8.10
2012,12,01,20,34,8.10
2012,12,01,20,35,8.10
2012,12,01,20,37,8.10
2012,12,01,20,38,8.10
2012,12,01,20,39,8.20
2012,12,01,20,40,8.20
2012,12,01,20,42,8.20
2012,12,01,20,43,8.20
2012,12,01,20,44,8.20
2012,12,01,20,45,8.20
2012,12,01,20,46,8.20
2012,12,01,20,47,8.20
2012,12,01,20,48,8.20
2012,12,01,20,49,8.20
2012,12,01,20,50,8.20
2012,12,01,20,51,8.20
2012,12,01,20,52,8.20
2012,12,01,20,53,8.20
2012,12,01,20,54,8.20
2012,12,01,20,56,8.20
2012,12,01,20,57,8.30
2012,12,01,20,58,8.30
2012,12,01,20,59,8.30
2012,12,01,21,00,8.30
2012,12,01,21,01,8.30
2012,12,01,21,02,8.30
2012,12,01,21,03,8.30
2012,12,01,21,04,8.30
2012,12,01,21,05,8.30
2012,12,01,21,06,8.30
2012,12,01,21,07,8.30
2012,12,01,21,08,8.30
2012,12,01,21,09,8.30
2012,12,01,21,10,8.30
2012,12,01,21,11,8.30
2012,12,01,21,12,8.30
2012,12,01,21,13,8.30
2012,12,01,21,14,8.30
2012,12,01,21,15,8.30
2012,12,01,21,16,8.30
2012,12,01,21,18,8.30
2012,12,01,21,19,8.30
2012,12,01,21,20,8.30
2012,12,01,21,21,8.30
2012,12,01,21,23,8.30
2012,12,01,21,24,8.30
2012,12,01,21,25,8.30
2012,12,01,21,26,8.40
2012,12,01,21,27,8.40
2012,12,01,21,28,8.40
2012,12,01,21,29,8.40
2012,12,01,21,32,8.40
2012,12,01,21,33,8.40
2012,12,01,21,34,8.40
2012,12,01,21,37,8.50
2012,12,01,21,38,8.50
2012,12,01,21,39,8.50
2012,12,01,21,41,8.60
2012,12,01,21,42,8.60
2012,12,01,21,43,8.60
2012,12,01,21,44,8.60
2012,12,01,21,47,8.60
2012,12,01,21,48,8.60
2012,12,01,21,49,8.60
2012,12,01,21,51,8.60
2012,12,01,21,52,8.60
2012,12,01,21,53,8.60
2012,12,01,21,54,8.60
2012,12,01,21,56,8.60
2012,12,01,21,58,8.60
2012,12,01,21,59,8.60
2012,12,01,22,01,8.60
2012,12,01,22,03,8.50
2012,12,01,22,04,8.60
2012,12,01,22,06,8.50
2012,12,01,22,07,8.60
2012,12,01,22,08,8.60
2012,12,01,22,09,8.50
2012,12,01,22,11,8.50
2012,12,01,22,13,8.50
2012,12,01,22,14,8.40
2012,12,01,22,16,8.40
2012,12,01,22,17,8.40
2012,12,01,22,18,8.40
2012,12,01,22,19,8.40
2012,12,01,22,21,8.40
2012,12,01,22,23,8.40
2012,12,01,22,24,8.30
2012,12,01,22,26,8.30
2012,12,01,22,27,8.30
2012,12,01,22,28,8.30
2012,12,01,22,29,8.30
2012,12,01,22,31,8.30
2012,12,01,22,32,8.30
2012,12,01,22,33,8.40
2012,12,01,22,34,8.40
2012,12,01,22,37,8.40
2012,12,01,22,38,8.40
2012,12,01,22,39,8.40
2012,12,01,22,42,8.40
2012,12,01,22,43,8.40
2012,12,01,22,44,8.40
2012,12,01,22,47,8.30
2012,12,01,22,48,8.30
2012,12,01,22,49,8.40
2012,12,01,22,51,8.30
2012,12,01,22,52,8.30
2012,12,01,22,53,8.30
2012,12,01,22,54,8.30
2012,12,01,22,56,8.30
2012,12,01,22,57,8.30
2012,12,01,22,58,8.30
2012,12,01,22,59,8.30
2012,12,01,23,00,8.30
2012,12,01,23,01,8.30
2012,12,01,23,02,8.30
2012,12,01,23,03,8.30
2012,12,01,23,05,8.30
2012,12,01,23,06,8.30
2012,12,01,23,07,8.30
2012,12,01,23,08,8.40
2012,12,01,23,09,8.30
2012,12,01,23,11,8.40
2012,12,01,23,12,8.40
2012,12,01,23,13,8.40
2012,12,01,23,15,8.40
2012,12,01,23,16,8.40
2012,12,01,23,17,8.40
2012,12,01,23,18,8.40
2012,12,01,23,20,8.40
2012,12,01,23,21,8.40
2012,12,01,23,22,8.40
2012,12,01,23,23,8.40
2012,12,01,23,24,8.40
2012,12,01,23,26,8.40
2012,12,01,23,27,8.40
2012,12,01,23,28,8.40
2012,12,01,23,30,8.40